Location: Newark
(43.6583°N, 1.6617°E)
Time: 10:56:28
(UTC+00:00)

Vanguard 1 Rocket - Pass Details

Date: 19 August 2019
Orbit: 650 x 4226 km, 34.3° (Epoch: 20 October)

Event Time Altitude Azimuth Distance (km) Brightness Sun altitude
Rises 01:34:42 0° 202° (SSW) 2,945 - -29.2°
Reaches altitude 10° 01:38:34 10° 165° (SSE) 2,122 - -28.9°
Maximum altitude 01:40:02 11° 146° (SSE) 2,114 - -28.8°
Drops below altitude 10° 01:41:35 10° 128° (SE) 2,313 - -28.6°
Exits shadow 01:42:19 - 121° (ESE) 2,466 9.6 -28.6°
Sets 01:46:30 0° 95° (E) 3,744 10.9 -28.2°
